When you browse on this site, cookies collect data to enhance your experience and personalize the content and advertising you see.
Visit our Privacy Policy to learn more. By continuing to use the site, you agree to this use of cookies and data.

Stündliche Wetter Bregenz

Heute, 10 August, Montag

Zeit Temperatur Niederschläge Wind Luftdruck Luftfeuchtigkeit
00:00 +14°C° 0 mm 1 m/S 649 mmHg 83%
01:00 +14°C° 0 mm 1 m/S 648 mmHg 84%
02:00 +14°C° 0 mm 1 m/S 648 mmHg 84%
03:00 +14°C° 0 mm 1 m/S 648 mmHg 84%
04:00 +13°C° 0 mm 1 m/S 648 mmHg 83%
05:00 +14°C° 0 mm 1 m/S 648 mmHg 81%
06:00 +15°C° 0 mm 1 m/S 648 mmHg 79%
07:00 +16°C° 0 mm 1 m/S 649 mmHg 77%
08:00 +19°C° 0 mm 1 m/S 649 mmHg 71%
09:00 +21°C° 0 mm 1 m/S 650 mmHg 64%
10:00 +24°C° 0 mm 1 m/S 650 mmHg 58%
11:00 +24°C° 0 mm 1 m/S 650 mmHg 55%
12:00 +25°C° 0 mm 1 m/S 651 mmHg 53%
13:00 +26°C° 0 mm 2 m/S 651 mmHg 50%
14:00 +25°C° 0.1 mm 1 m/S 650 mmHg 52%
15:00 +25°C° 0.1 mm 1 m/S 650 mmHg 54%
16:00 +25°C° 0.1 mm 1 m/S 650 mmHg 56%
17:00 +23°C° 0.4 mm 1 m/S 650 mmHg 65%
18:00 +21°C° 0.4 mm 1 m/S 649 mmHg 75%
19:00 +20°C° 0.4 mm 1 m/S 649 mmHg 84%
20:00 +18°C° 0.1 mm 1 m/S 648 mmHg 84%
21:00 +16°C° 0.1 mm 1 m/S 648 mmHg 84%
22:00 +15°C° 0.1 mm 2 m/S 648 mmHg 84%
23:00 +15°C° 0.1 mm 2 m/S 648 mmHg 83%

Morgen, 11 August, Dienstag

Zeit Temperatur Niederschläge Wind Luftdruck Luftfeuchtigkeit
00:00 +14°C° 0.1 mm 2 m/S 648 mmHg 82%
01:00 +14°C° 0.1 mm 2 m/S 648 mmHg 81%
02:00 +14°C° 0.2 mm 2 m/S 648 mmHg 81%
03:00 +14°C° 0.2 mm 1 m/S 648 mmHg 81%
04:00 +13°C° 0.2 mm 1 m/S 648 mmHg 81%
05:00 +14°C° 0.2 mm 1 m/S 648 mmHg 80%
06:00 +15°C° 0.2 mm 1 m/S 649 mmHg 79%
07:00 +16°C° 0.2 mm 1 m/S 649 mmHg 78%
08:00 +19°C° 0 mm 1 m/S 650 mmHg 71%
09:00 +22°C° 0 mm 1 m/S 650 mmHg 63%
10:00 +24°C° 0 mm 1 m/S 651 mmHg 55%
11:00 +24°C° 0 mm 1 m/S 651 mmHg 53%
12:00 +25°C° 0 mm 1 m/S 651 mmHg 52%
13:00 +26°C° 0 mm 2 m/S 651 mmHg 51%
14:00 +25°C° 0.1 mm 1 m/S 651 mmHg 52%
15:00 +25°C° 0.1 mm 1 m/S 651 mmHg 53%
16:00 +25°C° 0.1 mm 1 m/S 651 mmHg 55%
17:00 +23°C° 0.8 mm 1 m/S 650 mmHg 64%
18:00 +22°C° 0.8 mm 1 m/S 650 mmHg 73%
19:00 +18°C° 0.8 mm 0 m/S 649 mmHg 82%
20:00 +19°C° 0.4 mm 1 m/S 649 mmHg 84%
21:00 +16°C° 0.4 mm 1 m/S 649 mmHg 86%
22:00 +15°C° 0.4 mm 2 m/S 649 mmHg 88%
23:00 +15°C° 0.1 mm 2 m/S 649 mmHg 87%

übermorgen, 12 August, Mittwoch

Zeit Temperatur Niederschläge Wind Luftdruck Luftfeuchtigkeit
00:00 +14°C° 0.1 mm 2 m/S 649 mmHg 87%
01:00 +14°C° 0.1 mm 2 m/S 648 mmHg 86%
02:00 +14°C° 0.1 mm 2 m/S 648 mmHg 86%
03:00 +14°C° 0.1 mm 2 m/S 648 mmHg 85%
04:00 +13°C° 0.1 mm 2 m/S 648 mmHg 84%
05:00 +14°C° 0.2 mm 1 m/S 648 mmHg 84%
06:00 +15°C° 0.2 mm 1 m/S 649 mmHg 83%
07:00 +16°C° 0.2 mm 1 m/S 649 mmHg 82%
08:00 +19°C° 0.1 mm 1 m/S 649 mmHg 74%
09:00 +22°C° 0.1 mm 1 m/S 650 mmHg 65%
10:00 +22°C° 0.1 mm 0 m/S 651 mmHg 57%
11:00 +25°C° 0 mm 1 m/S 651 mmHg 54%
12:00 +26°C° 0 mm 1 m/S 651 mmHg 50%
13:00 +26°C° 0 mm 1 m/S 651 mmHg 47%
14:00 +26°C° 0 mm 1 m/S 651 mmHg 49%
15:00 +26°C° 0 mm 1 m/S 651 mmHg 51%
16:00 +26°C° 0 mm 1 m/S 651 mmHg 53%
17:00 +24°C° 0.6 mm 2 m/S 650 mmHg 63%
18:00 +21°C° 0.6 mm 2 m/S 650 mmHg 73%
19:00 +19°C° 0.6 mm 2 m/S 649 mmHg 83%
20:00 +17°C° 0.1 mm 2 m/S 649 mmHg 84%
21:00 +16°C° 0.1 mm 2 m/S 649 mmHg 85%
22:00 +14°C° 0.1 mm 3 m/S 649 mmHg 85%
23:00 +15°C° 0 mm 2 m/S 649 mmHg 83%

13 August, Donnerstag

Zeit Temperatur Niederschläge Wind Luftdruck Luftfeuchtigkeit
00:00 +14°C° 0 mm 2 m/S 648 mmHg 81%
01:00 +14°C° 0 mm 2 m/S 648 mmHg 79%
02:00 +14°C° 0 mm 2 m/S 648 mmHg 76%
03:00 +14°C° 0 mm 2 m/S 648 mmHg 74%
04:00 +15°C° 0 mm 2 m/S 648 mmHg 71%
05:00 +15°C° 0.1 mm 2 m/S 648 mmHg 72%
06:00 +16°C° 0.1 mm 1 m/S 649 mmHg 73%
07:00 +16°C° 0.1 mm 1 m/S 649 mmHg 74%
08:00 +19°C° 0.1 mm 1 m/S 650 mmHg 68%
09:00 +21°C° 0.1 mm 1 m/S 650 mmHg 62%
10:00 +22°C° 0.1 mm 1 m/S 651 mmHg 56%
11:00 +23°C° 0.1 mm 1 m/S 651 mmHg 55%
12:00 +24°C° 0.1 mm 1 m/S 651 mmHg 54%
13:00 +24°C° 0.1 mm 2 m/S 651 mmHg 53%
14:00 +24°C° 0.6 mm 1 m/S 651 mmHg 58%
15:00 +23°C° 0.6 mm 1 m/S 650 mmHg 63%
16:00 +23°C° 0.6 mm 1 m/S 650 mmHg 68%
17:00 +21°C° 1.3 mm 1 m/S 650 mmHg 76%
18:00 +18°C° 1.3 mm 2 m/S 649 mmHg 83%
19:00 +16°C° 1.3 mm 2 m/S 649 mmHg 90%
20:00 +15°C° 0.2 mm 2 m/S 649 mmHg 89%
21:00 +15°C° 0.2 mm 2 m/S 649 mmHg 88%
22:00 +15°C° 0.2 mm 1 m/S 649 mmHg 87%
23:00 +14°C° 0.1 mm 1 m/S 649 mmHg 87%

14 August, Freitag

Zeit Temperatur Niederschläge Wind Luftdruck Luftfeuchtigkeit
00:00 +14°C° 0.1 mm 1 m/S 649 mmHg 88%
01:00 +14°C° 0.1 mm 1 m/S 648 mmHg 88%
02:00 +14°C° 0.4 mm 1 m/S 648 mmHg 89%
03:00 +14°C° 0.4 mm 1 m/S 648 mmHg 90%
04:00 +13°C° 0.4 mm 1 m/S 648 mmHg 92%
05:00 +13°C° 0.5 mm 1 m/S 648 mmHg 92%
06:00 +13°C° 0.5 mm 1 m/S 648 mmHg 92%
07:00 +13°C° 0.5 mm 1 m/S 648 mmHg 92%
08:00 +14°C° 0.4 mm 1 m/S 649 mmHg 90%
09:00 +15°C° 0.4 mm 1 m/S 649 mmHg 87%
10:00 +16°C° 0.4 mm 1 m/S 649 mmHg 85%
11:00 +18°C° 0.7 mm 1 m/S 649 mmHg 81%
12:00 +19°C° 0.7 mm 1 m/S 649 mmHg 76%
13:00 +20°C° 0.7 mm 1 m/S 649 mmHg 72%
14:00 +20°C° 0.5 mm 1 m/S 649 mmHg 72%
15:00 +20°C° 0.5 mm 1 m/S 649 mmHg 71%
16:00 +20°C° 0.5 mm 1 m/S 649 mmHg 71%
17:00 +19°C° 0.4 mm 1 m/S 649 mmHg 75%
18:00 +16°C° 0.4 mm 0 m/S 649 mmHg 80%
19:00 +15°C° 0.4 mm 0 m/S 648 mmHg 85%
20:00 +14°C° 0.5 mm 0 m/S 648 mmHg 87%
21:00 +13°C° 0.5 mm 1 m/S 648 mmHg 89%
22:00 +12°C° 0.5 mm 1 m/S 648 mmHg 91%
23:00 +12°C° 0 mm 1 m/S 648 mmHg 90%

15 August, Samstag

Zeit Temperatur Niederschläge Wind Luftdruck Luftfeuchtigkeit
00:00 +12°C° 0 mm 1 m/S 648 mmHg 90%
01:00 +11°C° 0 mm 1 m/S 648 mmHg 90%
02:00 +11°C° 0 mm 1 m/S 647 mmHg 90%
03:00 +11°C° 0 mm 1 m/S 647 mmHg 90%
04:00 +10°C° 0 mm 1 m/S 647 mmHg 90%
05:00 +11°C° 0 mm 1 m/S 647 mmHg 89%
06:00 +12°C° 0 mm 1 m/S 647 mmHg 87%
07:00 +13°C° 0 mm 1 m/S 648 mmHg 86%
08:00 +15°C° 0 mm 1 m/S 648 mmHg 78%
09:00 +18°C° 0 mm 1 m/S 649 mmHg 70%
10:00 +20°C° 0 mm 1 m/S 650 mmHg 62%
11:00 +21°C° 0 mm 1 m/S 650 mmHg 58%
12:00 +22°C° 0 mm 1 m/S 650 mmHg 55%
13:00 +23°C° 0 mm 2 m/S 650 mmHg 51%
14:00 +21°C° 0 mm 2 m/S 650 mmHg 52%
15:00 +21°C° 0 mm 2 m/S 649 mmHg 53%
16:00 +21°C° 0 mm 2 m/S 649 mmHg 53%
17:00 +21°C° 0 mm 1 m/S 649 mmHg 61%
18:00 +19°C° 0 mm 1 m/S 648 mmHg 70%
19:00 +16°C° 0 mm 1 m/S 648 mmHg 78%
20:00 +15°C° 0 mm 1 m/S 648 mmHg 80%
21:00 +14°C° 0 mm 1 m/S 648 mmHg 81%
22:00 +13°C° 0 mm 1 m/S 648 mmHg 83%
23:00 +13°C° 0 mm 1 m/S 647 mmHg 83%
Mehr zeigen